Aviation Digital Data Service (ADDS)

Output produced by METARs form (0243 UTC 24 July 2017)
found at http://www.aviationweather.gov/adds/metars/
 
VEAT 240230Z 12010KT 3000 -RA FEW010 SCT018 OVC090 25/25 Q1001 NOSIG
VIAG 240130Z 17003KT 4000 -RABR SCT006 SCT010 BKN080 26/26 Q0998 NOSIG
VAAH 240230Z 25014KT 1800 RA SCT008 SCT018 OVC060 25/24 Q0998 NOSIG
TAF VAAH 232300Z 2400/2506 27008KT 2500 RA TSRA SCT010 BKN018 FEW025CB OVC080 
     BECMG 2401/2403 29005KT 2000 
     BECMG 2404/2406 25008KT 3000-RA SHRA SCT012 BKN020 FEW025CB OVC070 
     BECMG 2412/2414 23008KT 3500 RA TSRA 
     BECMG 2501/2503 29006KT 2000-TSRA SHRA SCT012 BKN020 FEW020 FEW025CB OVC080 
     BECMG 2504/2506 25008KT 3000
       
VIAG 240130Z 17003KT 4000 -RABR SCT006 SCT010 BKN080 26/26 Q0998 NOSIG
VIAR 240200Z 09007KT 5000 BR SCT040 BKN100 28/28 Q1000 NOSIG
TAF VIAR 232300Z 2400/2506 00000KT 3000 BR SCT030 BKN100 
     TEMPO 2402/2406 1500 TSRA SCT030 FEW035CB OVC080 
     BECMG 2405/2407 14006KT 5000 BR HZ 
     TEMPO 2415/2417 1500 TSRA SCT030 FEW035CB OVC080 
     BECMG 2418/2420 00000KT 3000 BR 
     BECMG 2504/2505 13006KT 4000 BR HZ 
     TEMPO 2502/2506 FEW035CB
       
VIBR 240230Z 00000KT 7000 FEW005 SCT030 BKN080 22/21 1006 NNN
VICG 240230Z 14007KT 6000 SCT025 BKN090 29/23 Q1000 NOSIG
VIDD 240230Z 09004KT 2000 BR SCT030 FEW035CB BKN100 28/26 Q0998 NOSIG
VIDN 240200Z 00000KT 6000 SCT030 SCT070 27/25 Q1001
VIDP 240230Z 10009KT 2200 BR SCT030 BKN100 28/26 Q0999 NOSIG
TAF VIDP 232300Z 2400/2506 09006KT 2000 BR FEW030 SCT100 
     BECMG 2405/2407 12008KT 3500 BR HZ SCT030 BKN100 
     TEMPO 2406/2412 12010G20KT 1500 TSRA SCT030 FEW035CB OVC080 
     BECMG 2414/2416 09006KT 2500 BR 
     BECMG 2504/2505 12008KT 3000 BR HZ
       
VIGR 240130Z 15006KT 6000 FEW025 BKN250 26/17 Q998 NOSIG
VIJP 240230Z 11004KT 1200 R27/1200N DZ SCT020 SCT030 OVC090 Q0998 BECMG 1500 TSRA
TAF VIJP 232300Z 2400/2506 14005KT 4000 HZ BR SCT030 SCT090 
     BECMG 2404/2406 09005KT 4000 HZ 
     TEMPO 2405/2411 1500 TSRA FEW030CB OVC080 
     BECMG 2413/2415 VRB03KT 4000 HZ 
     TEMPO 2412/2418 1500 TSRA FEW030CB OVC080 
     BECMG 2504/2505 16006KT 4000 HZ SCT030 BKN090
       
VIJU 240130Z VRB01KT 2000 TSRABR SCT015 SCT020 FEW030CB BKN080 25/25 Q1001 NOSIG
VILK 240230Z 00000KT 2500 BR SCT010 SCT015 FEW030CB BKN100 28/28 Q0999 NOSIG
TAF VILK 232300Z 2400/2506 00000KT 3000 BR -RA SCT020 BKN090 
     TEMPO 2400/2404 1500 TSRA FEW030CB OVC090 
     BECMG 2404/2406 VRB02KT 3500 BR HZ 
     TEMPO 2408/2412 1500 TSRA FEW030CB VC090 
     BECMG 2414/2416 00000KT 2500 BR 
     BECMG 2504/2506 VRB03KT 4000 BR HZ
       
VISR 240130Z 12003KT 5000 BR SCT020 FEW030CB SCT200 20/18 Q1011 TEMPO TSRA( RMK CB S-25KM)
VAAH 240230Z 25014KT 1800 RA SCT008 SCT018 OVC060 25/24 Q0998 NOSIG
TAF VAAH 232300Z 2400/2506 27008KT 2500 RA TSRA SCT010 BKN018 FEW025CB OVC080 
     BECMG 2401/2403 29005KT 2000 
     BECMG 2404/2406 25008KT 3000-RA SHRA SCT012 BKN020 FEW025CB OVC070 
     BECMG 2412/2414 23008KT 3500 RA TSRA 
     BECMG 2501/2503 29006KT 2000-TSRA SHRA SCT012 BKN020 FEW020 FEW025CB OVC080 
     BECMG 2504/2506 25008KT 3000
       
VAAU 240000Z 25004KT 5000 HZ SCT018 BKN080 23/21 Q1005 NOSIG
VABB 240230Z 24014KT 3000 HZ SCT015 SCT025 BKN090 29/26 Q1004 BECMG 3000 HZ
TAF VABB 232300Z 2400/2506 23015G25KT 1500 HZ BR FEW015 SCT020 FEW025TCU BKN080 
     BECMG 2403/2405 26010G20KT 3000 HZ -RA 
     BECMG 2410/2412 2000 -RA -TSRA FEW015 SCT018 FEW030CB OVC080 
     BECMG 2415/2417 26015G25KT 2500 -TS -TSRA 
     BECMG 2422/2424 3000 HZ BR 
     BECMG 2504/2506 2000 -TS -TSRA
       
VABP 240230Z 22010KT 4000 HZ SCT008 SCT020 BKN100 24/23 Q1002 NOSIG
VAID 240200Z 24010KT 2500 -DZ SCT008 SCT020 BKN100 22/22 Q1002 NOSIG
VAJB 240100Z 00000KT 5000 HZ SCT010 SCT020 BKN080 24/23 Q1002
VAJJ 240230Z 26012G22KT 180V350 5000 HZ SCT018 SCT025 BKN090 29/26 Q1005 NOSIG
VANP 230230Z 23006KT 4000 HZ FEW0010 SCT015 BKN100 26/25 Q1004 NO SIG
TAF VANP 232300Z 2400/2506 23005KT 3000 -RA HZ FEW010 SCT020 BKN080 
     BECMG 2404/2406 23010KT 5000 -RA HZ 
     BECMG 2412/2414 23005KT 3000 -RA HZ 
     TEMPO 2408/2412 . 2414/2418 1500 RA 
     BECMG 2504/2506 23010KT 5000 -RA HZ
       
VARK 240100Z 25012KT 6000 SCT012 BKN080 26/24 Q1001
VAUD 240230Z 20003KT 3000 FBLRA FEW015 SCT025 BKN080 24/23 Q998 NOSIG
VIAR 240200Z 09007KT 5000 BR SCT040 BKN100 28/28 Q1000 NOSIG
TAF VIAR 232300Z 2400/2506 00000KT 3000 BR SCT030 BKN100 
     TEMPO 2402/2406 1500 TSRA SCT030 FEW035CB OVC080 
     BECMG 2405/2407 14006KT 5000 BR HZ 
     TEMPO 2415/2417 1500 TSRA SCT030 FEW035CB OVC080 
     BECMG 2418/2420 00000KT 3000 BR 
     BECMG 2504/2505 13006KT 4000 BR HZ 
     TEMPO 2502/2506 FEW035CB
       
VAAU 240000Z 25004KT 5000 HZ SCT018 BKN080 23/21 Q1005 NOSIG
VOBG 240230Z 26014KT 8000 SCT010 22/20 Q1012
TAF VOBG 240200Z 2403/2412 27010KT 8000 SCT012 SCT080 
     TEMPO 2409/2412 5000 RA DZ SCT010 SCT012 BKN080
       
VEAT 240230Z 12010KT 3000 -RA FEW010 SCT018 OVC090 25/25 Q1001 NOSIG
VEBN 240230Z 27002KT 4000 BR FEW020 SCT100 30/26 Q0999 NOSIG
TAF VEBN 232300Z 2400/2506 00000KT 3000 BR -RA SCT020 BKN090 
     TEMPO 2400/2404 1500 TSRA FEW030CB OVC090 
     BECMG 2404/2406 VRB02KT 3500 BR HZ 
     TEMPO 2408/2412 1500 TSRA FEW030CB VC090 
     BECMG 2414/216 00000KT 2500 BR 
     BECMG 2504/2506 VRB03KT 4000 BR HZ
       
VEBS 240230Z 21004KT 3000 -RA SCT018 OVC090 27/27 Q1001 BECMG 2000 RA
VECC 240230Z 25012KT 1500 RA SCT008 SCT012 FEW025CB OVC080 26/26 Q0996 NOSIG
TAF VECC 232300Z 2400/2506 24010KT 2800 HZ SCT018 BKN090 
     BECMG 2404/2406 18007KT 3000 -RA HZ 
     TEMPO 2406/2410 1500 TSRA SCT015 FEW025CB BKN080 
     BECMG 2410/2412 2500 -RA HZ 
     TEMPO 2413/2417 1500 TSRA SCT015 FEW025CB OVC080 
     BECMG 2504/2506 23010KT 3000 HZ
       
VEGT 240200Z 07004KT 5000 BR SCT018 BKN100 29/26 Q1002 NOSIG
VEGY 240100Z 29007KT 2500 -RA FEW010 BKN016 OVC080 26/26 Q0997
VEIM 240200Z 00000KT 4000 -RA FEW008 SCT018 OVC090 23/22 Q1008 BECMG 5000 -RA
VEMN 240230Z 07003KT 3000 HZ SCT008 SCT018 FEW025CB BKN100 27/25 Q1005 BECMG 5000 HZ
VEPT 240230Z 08004KT 3000 HZ FEW010 SCT015 BKN100 28/26 Q0998 NOSIG
TAF VEPT 232300Z 2400/2506 05005KT 2500-RA HZ SCT018 BKN100 
     BECMG 2404/0406 3500 HZ SCT015 SCT025 BKN100 
     TEMPO 2410/2414 10008KT 2000-TSRA-RA SCT010 SCT015 FEW030CB OVC090 
     BECMG 2418/2420 2500 ..RA HZ SCT018 BKN100 
     BECMG 2500/2502 00000KT 3000 HZ 
     BECMG 2404/2406 VRB04KT 3500 HZ SCT015 SCT025 BKN100
       
VERC 240100Z 28006KT 2500 -RA SCT015 FEW030CB BKN100 23/23 Q1001 NOSIG
VOBG 240230Z 26014KT 8000 SCT010 22/20 Q1012
TAF VOBG 240200Z 2403/2412 27010KT 8000 SCT012 SCT080 
     TEMPO 2409/2412 5000 RA DZ SCT010 SCT012 BKN080
       
VOBL 240230Z 27014KT 9999 SCT010 23/21 Q1013 NOSIG
TAF VOBL 240200Z 2403/2412 27010KT 8000 SCT012 SCT080 
     TEMPO 2409/2412 5000 RA DZ SCT010 SCT012 BKN080
       
TAF VOBM 240200Z 2403/2412 27010KT 8000 SCT010 SCT012 BKN080 
     TEMPO 2409/2412 5000 RA DZ SCT008 SCT012 BKN080
       
VOBZ 240230Z 29004KT 5000 HZ FEW020 SCT100 29/25 Q1004 NOSIG
VOCB 240230Z 18009KT 6000 FEW010 26/22 Q1011 NOSIG
TAF VOCB 232300Z 2400/2506 20010KT 6000 FEW015 SCT080 
     BECMG 2406/2407 20010G20KT 
     BECMG 2418/2419 20010KT
       
VOCI 240230Z 08004KT 3000 BR FEW012 SCT020 FEW025TCU 27/23 Q1010 NOSIG
TAF VOCI 232300Z 2400/2506 VRB05KT 3000 BR SCT015 BKN080 
     TEMPO 2400/2403 2000 RA BR SCT010 SCT015 BKN080 
     BECMG 2404/2406 28010KT 5000 HZ 
     TEMPO 2412/2416 2000 RA SCT010 FEW025CB BKN080 
     BECMG 2416/2418 VRB05KT 4000 RA BR 
     TEMPO 2423/2503 2000 RA BR SCT010 SCT015 BKN080 
     BECMG 2504/2506 27010KT 5000 HZ
       
VOCL 240230Z 00000KT 5000 BR SCT012 FEW025CB BKN090 26/24 Q1010 NOSIG
TAF VOCL 232300Z 2400/2506 VRB05KT 4000 BR FEW008 SCT012 BKN080 
     TEMPO 2400/2403 2000 RA BR SCT006 SCT012 BKN080 
     BECMG 2404/2406 29010KT 6000 FEW012 FEW025CB BKN080 
     BECMG 2416/2418 VRB05KT 4000 RA BR FEW006 SCT012 BKN080 
     TEMPO 2423/2503 2000 RA BR SCT006 SCT012 BKN080 
     BECMG 2504/2506 29010KT 6000 FEW012 FEW025CB BKN080
       
VOGO 240100Z 25012KT 5000 BR FEW010 SCT016 FEW022TCU BKN070 26/24 Q1006 TEMPO 3000 RA
TAF VOHB 240200Z 2403/2412 27010KT 8000 SCT010 SCT012 BKN080 
     TEMPO 2409/2412 5000 RA DZ SCT008 SCT012 BKN080
       
VOHS 240230Z 25006KT 5000 HZ SCT015 25/22 Q1009 NOSIG
TAF COR VOHS 232300Z 2400/2506 25007KT 5000 DZ HZ SCT015 BKN100 
     BECMG 2402/2404 27010KT 6000 FEW015 SCT025 BKN100 
     TEMPO 2411/2415 26015KT 3000 RA BKN010 FEW030CB OVC080 
     BECMG 2415/2417 25007KT 5000 DZ HZ SCT015 BKN10 
     BECMG 2503/2505 25007G17KT 6000 SCT015 SCT025
       
VOHY 240230Z 25004KT 5000 HZ SCT010 SCT015 BKN100 25/23 COR Q1010 NOSIG
VOMD 240230Z 33005KT 6000 FEW020 31/21 Q1008 NOSIG
TAF VOMD 232300Z 2400/2506 29010KT 6000 FEW020 SCT100
       
VOML 240230Z 18003KT 2000 BR FEW003 SCT012 26/24 Q1009 BECMG 3000 BR
TAF VOML 240200Z 2403/2412 27010KT 6000 SCT008 SCT012 BKN080 
     TEMPO 2409/2412 3000 SHRA RA SCT008 SCT012 FEW025CB BKN080
       
VOMM 240230Z 28010KT 6000 FEW020 32/22 Q1007 NOSIG
TAF VOMM 232300Z 2400/2506 25010KT 6000 FEW020 SCT100 
     BECMG 2409/2411 12010KT 
     BECMG 2418/2419 18005KT 
     BECMG 2500/2501 25010KT 
       
TAF VOMY 240200Z 2403/2412 27010KT 8000 SCT012 SCT080 
     TEMPO 2409/2412 5000 RA DZ SCT010 SCT012 BKN080
       
VORY 240230Z 00000KT 6000 FEW020 BKN200 34/25 Q1005
VOTP 240230Z 34004KT 6000 FEW020 31/22 Q1007
VOTR 240230Z 29008G18KT 6000 FEW018 30/21 Q1007 NOSIG
TAF VOTR 232300Z 2400/2506 27010G20KT 6000 FEW018 SCT100
       
VOTV 240230Z 34007KT 4000 HZ FEW015 28/24 Q1009 BECMG 5000
TAF VOTV 232300Z 2400/2506 34005KT 3000 HZ SCT015 BKN080 
     TEMPO 2400/2403 2000 RA 
     BECMG 2403/2405 30010G20KT 6000 
     TEMPO 2412/2416 2500 RA SCT010 FEW025CB BKN080 
     BECMG 2416/2417 34005KT 3000 HZ 
     TEMPO 2423/2503 2000 RA BR 
     BECMG 2503/2505 30010G20KT 6000
       
VOVZ 240200Z 27004KT 6000 FEW018 BKN220 30/26 Q1002 NOSIG
VIAG 240130Z 17003KT 4000 -RABR SCT006 SCT010 BKN080 26/26 Q0998 NOSIG
VIAR 240200Z 09007KT 5000 BR SCT040 BKN100 28/28 Q1000 NOSIG
TAF VIAR 232300Z 2400/2506 00000KT 3000 BR SCT030 BKN100 
     TEMPO 2402/2406 1500 TSRA SCT030 FEW035CB OVC080 
     BECMG 2405/2407 14006KT 5000 BR HZ 
     TEMPO 2415/2417 1500 TSRA SCT030 FEW035CB OVC080 
     BECMG 2418/2420 00000KT 3000 BR 
     BECMG 2504/2505 13006KT 4000 BR HZ 
     TEMPO 2502/2506 FEW035CB
       
VIBR 240230Z 00000KT 7000 FEW005 SCT030 BKN080 22/21 1006 NNN
VICG 240230Z 14007KT 6000 SCT025 BKN090 29/23 Q1000 NOSIG
VIDD 240230Z 09004KT 2000 BR SCT030 FEW035CB BKN100 28/26 Q0998 NOSIG
VIDN 240200Z 00000KT 6000 SCT030 SCT070 27/25 Q1001
VIDP 240230Z 10009KT 2200 BR SCT030 BKN100 28/26 Q0999 NOSIG
TAF VIDP 232300Z 2400/2506 09006KT 2000 BR FEW030 SCT100 
     BECMG 2405/2407 12008KT 3500 BR HZ SCT030 BKN100 
     TEMPO 2406/2412 12010G20KT 1500 TSRA SCT030 FEW035CB OVC080 
     BECMG 2414/2416 09006KT 2500 BR 
     BECMG 2504/2505 12008KT 3000 BR HZ
       
VIGR 240130Z 15006KT 6000 FEW025 BKN250 26/17 Q998 NOSIG
VIJP 240230Z 11004KT 1200 R27/1200N DZ SCT020 SCT030 OVC090 Q0998 BECMG 1500 TSRA
TAF VIJP 232300Z 2400/2506 14005KT 4000 HZ BR SCT030 SCT090 
     BECMG 2404/2406 09005KT 4000 HZ 
     TEMPO 2405/2411 1500 TSRA FEW030CB OVC080 
     BECMG 2413/2415 VRB03KT 4000 HZ 
     TEMPO 2412/2418 1500 TSRA FEW030CB OVC080 
     BECMG 2504/2505 16006KT 4000 HZ SCT030 BKN090
       
VIJU 240130Z VRB01KT 2000 TSRABR SCT015 SCT020 FEW030CB BKN080 25/25 Q1001 NOSIG
VILK 240230Z 00000KT 2500 BR SCT010 SCT015 FEW030CB BKN100 28/28 Q0999 NOSIG
TAF VILK 232300Z 2400/2506 00000KT 3000 BR -RA SCT020 BKN090 
     TEMPO 2400/2404 1500 TSRA FEW030CB OVC090 
     BECMG 2404/2406 VRB02KT 3500 BR HZ 
     TEMPO 2408/2412 1500 TSRA FEW030CB VC090 
     BECMG 2414/2416 00000KT 2500 BR 
     BECMG 2504/2506 VRB03KT 4000 BR HZ
       
VISR 240130Z 12003KT 5000 BR SCT020 FEW030CB SCT200 20/18 Q1011 TEMPO TSRA( RMK CB S-25KM)
VABP 240230Z 22010KT 4000 HZ SCT008 SCT020 BKN100 24/23 Q1002 NOSIG
VEBS 240230Z 21004KT 3000 -RA SCT018 OVC090 27/27 Q1001 BECMG 2000 RA
VERC 240100Z 28006KT 2500 -RA SCT015 FEW030CB BKN100 23/23 Q1001 NOSIG
VOCL 240230Z 00000KT 5000 BR SCT012 FEW025CB BKN090 26/24 Q1010 NOSIG
TAF VOCL 232300Z 2400/2506 VRB05KT 4000 BR FEW008 SCT012 BKN080 
     TEMPO 2400/2403 2000 RA BR SCT006 SCT012 BKN080 
     BECMG 2404/2406 29010KT 6000 FEW012 FEW025CB BKN080 
     BECMG 2416/2418 VRB05KT 4000 RA BR FEW006 SCT012 BKN080 
     TEMPO 2423/2503 2000 RA BR SCT006 SCT012 BKN080 
     BECMG 2504/2506 29010KT 6000 FEW012 FEW025CB BKN080
       
VICG 240230Z 14007KT 6000 SCT025 BKN090 29/23 Q1000 NOSIG
VOMM 240230Z 28010KT 6000 FEW020 32/22 Q1007 NOSIG
TAF VOMM 232300Z 2400/2506 25010KT 6000 FEW020 SCT100 
     BECMG 2409/2411 12010KT 
     BECMG 2418/2419 18005KT 
     BECMG 2500/2501 25010KT 
       
VABB 240230Z 24014KT 3000 HZ SCT015 SCT025 BKN090 29/26 Q1004 BECMG 3000 HZ
TAF VABB 232300Z 2400/2506 23015G25KT 1500 HZ BR FEW015 SCT020 FEW025TCU BKN080 
     BECMG 2403/2405 26010G20KT 3000 HZ -RA 
     BECMG 2410/2412 2000 -RA -TSRA FEW015 SCT018 FEW030CB OVC080 
     BECMG 2415/2417 26015G25KT 2500 -TS -TSRA 
     BECMG 2422/2424 3000 HZ BR 
     BECMG 2504/2506 2000 -TS -TSRA
       
VOCI 240230Z 08004KT 3000 BR FEW012 SCT020 FEW025TCU 27/23 Q1010 NOSIG
TAF VOCI 232300Z 2400/2506 VRB05KT 3000 BR SCT015 BKN080 
     TEMPO 2400/2403 2000 RA BR SCT010 SCT015 BKN080 
     BECMG 2404/2406 28010KT 5000 HZ 
     TEMPO 2412/2416 2000 RA SCT010 FEW025CB BKN080 
     BECMG 2416/2418 VRB05KT 4000 RA BR 
     TEMPO 2423/2503 2000 RA BR SCT010 SCT015 BKN080 
     BECMG 2504/2506 27010KT 5000 HZ
       
VOCB 240230Z 18009KT 6000 FEW010 26/22 Q1011 NOSIG
TAF VOCB 232300Z 2400/2506 20010KT 6000 FEW015 SCT080 
     BECMG 2406/2407 20010G20KT 
     BECMG 2418/2419 20010KT
       
VIDN 240200Z 00000KT 6000 SCT030 SCT070 27/25 Q1001
VAID 240200Z 24010KT 2500 -DZ SCT008 SCT020 BKN100 22/22 Q1002 NOSIG
VEMN 240230Z 07003KT 3000 HZ SCT008 SCT018 FEW025CB BKN100 27/25 Q1005 BECMG 5000 HZ
VEAT 240230Z 12010KT 3000 -RA FEW010 SCT018 OVC090 25/25 Q1001 NOSIG
VEBN 240230Z 27002KT 4000 BR FEW020 SCT100 30/26 Q0999 NOSIG
TAF VEBN 232300Z 2400/2506 00000KT 3000 BR -RA SCT020 BKN090 
     TEMPO 2400/2404 1500 TSRA FEW030CB OVC090 
     BECMG 2404/2406 VRB02KT 3500 BR HZ 
     TEMPO 2408/2412 1500 TSRA FEW030CB VC090 
     BECMG 2414/216 00000KT 2500 BR 
     BECMG 2504/2506 VRB03KT 4000 BR HZ
       
VEBS 240230Z 21004KT 3000 -RA SCT018 OVC090 27/27 Q1001 BECMG 2000 RA
VECC 240230Z 25012KT 1500 RA SCT008 SCT012 FEW025CB OVC080 26/26 Q0996 NOSIG
TAF VECC 232300Z 2400/2506 24010KT 2800 HZ SCT018 BKN090 
     BECMG 2404/2406 18007KT 3000 -RA HZ 
     TEMPO 2406/2410 1500 TSRA SCT015 FEW025CB BKN080 
     BECMG 2410/2412 2500 -RA HZ 
     TEMPO 2413/2417 1500 TSRA SCT015 FEW025CB OVC080 
     BECMG 2504/2506 23010KT 3000 HZ
       
VEGT 240200Z 07004KT 5000 BR SCT018 BKN100 29/26 Q1002 NOSIG
VEGY 240100Z 29007KT 2500 -RA FEW010 BKN016 OVC080 26/26 Q0997
VEIM 240200Z 00000KT 4000 -RA FEW008 SCT018 OVC090 23/22 Q1008 BECMG 5000 -RA
VEMN 240230Z 07003KT 3000 HZ SCT008 SCT018 FEW025CB BKN100 27/25 Q1005 BECMG 5000 HZ
VEPT 240230Z 08004KT 3000 HZ FEW010 SCT015 BKN100 28/26 Q0998 NOSIG
TAF VEPT 232300Z 2400/2506 05005KT 2500-RA HZ SCT018 BKN100 
     BECMG 2404/0406 3500 HZ SCT015 SCT025 BKN100 
     TEMPO 2410/2414 10008KT 2000-TSRA-RA SCT010 SCT015 FEW030CB OVC090 
     BECMG 2418/2420 2500 ..RA HZ SCT018 BKN100 
     BECMG 2500/2502 00000KT 3000 HZ 
     BECMG 2404/2406 VRB04KT 3500 HZ SCT015 SCT025 BKN100
       
VERC 240100Z 28006KT 2500 -RA SCT015 FEW030CB BKN100 23/23 Q1001 NOSIG
VAAH 240230Z 25014KT 1800 RA SCT008 SCT018 OVC060 25/24 Q0998 NOSIG
TAF VAAH 232300Z 2400/2506 27008KT 2500 RA TSRA SCT010 BKN018 FEW025CB OVC080 
     BECMG 2401/2403 29005KT 2000 
     BECMG 2404/2406 25008KT 3000-RA SHRA SCT012 BKN020 FEW025CB OVC070 
     BECMG 2412/2414 23008KT 3500 RA TSRA 
     BECMG 2501/2503 29006KT 2000-TSRA SHRA SCT012 BKN020 FEW020 FEW025CB OVC080 
     BECMG 2504/2506 25008KT 3000
       
VAAU 240000Z 25004KT 5000 HZ SCT018 BKN080 23/21 Q1005 NOSIG
VABB 240230Z 24014KT 3000 HZ SCT015 SCT025 BKN090 29/26 Q1004 BECMG 3000 HZ
TAF VABB 232300Z 2400/2506 23015G25KT 1500 HZ BR FEW015 SCT020 FEW025TCU BKN080 
     BECMG 2403/2405 26010G20KT 3000 HZ -RA 
     BECMG 2410/2412 2000 -RA -TSRA FEW015 SCT018 FEW030CB OVC080 
     BECMG 2415/2417 26015G25KT 2500 -TS -TSRA 
     BECMG 2422/2424 3000 HZ BR 
     BECMG 2504/2506 2000 -TS -TSRA
       
VABP 240230Z 22010KT 4000 HZ SCT008 SCT020 BKN100 24/23 Q1002 NOSIG
VAID 240200Z 24010KT 2500 -DZ SCT008 SCT020 BKN100 22/22 Q1002 NOSIG
VAJB 240100Z 00000KT 5000 HZ SCT010 SCT020 BKN080 24/23 Q1002
VAJJ 240230Z 26012G22KT 180V350 5000 HZ SCT018 SCT025 BKN090 29/26 Q1005 NOSIG
VANP 230230Z 23006KT 4000 HZ FEW0010 SCT015 BKN100 26/25 Q1004 NO SIG
TAF VANP 232300Z 2400/2506 23005KT 3000 -RA HZ FEW010 SCT020 BKN080 
     BECMG 2404/2406 23010KT 5000 -RA HZ 
     BECMG 2412/2414 23005KT 3000 -RA HZ 
     TEMPO 2408/2412 . 2414/2418 1500 RA 
     BECMG 2504/2506 23010KT 5000 -RA HZ
       
VARK 240100Z 25012KT 6000 SCT012 BKN080 26/24 Q1001
VAUD 240230Z 20003KT 3000 FBLRA FEW015 SCT025 BKN080 24/23 Q998 NOSIG
VIAG 240130Z 17003KT 4000 -RABR SCT006 SCT010 BKN080 26/26 Q0998 NOSIG
VIAR 240200Z 09007KT 5000 BR SCT040 BKN100 28/28 Q1000 NOSIG
TAF VIAR 232300Z 2400/2506 00000KT 3000 BR SCT030 BKN100 
     TEMPO 2402/2406 1500 TSRA SCT030 FEW035CB OVC080 
     BECMG 2405/2407 14006KT 5000 BR HZ 
     TEMPO 2415/2417 1500 TSRA SCT030 FEW035CB OVC080 
     BECMG 2418/2420 00000KT 3000 BR 
     BECMG 2504/2505 13006KT 4000 BR HZ 
     TEMPO 2502/2506 FEW035CB
       
VIBR 240230Z 00000KT 7000 FEW005 SCT030 BKN080 22/21 1006 NNN
VICG 240230Z 14007KT 6000 SCT025 BKN090 29/23 Q1000 NOSIG
VIDD 240230Z 09004KT 2000 BR SCT030 FEW035CB BKN100 28/26 Q0998 NOSIG
VIDN 240200Z 00000KT 6000 SCT030 SCT070 27/25 Q1001
VIDP 240230Z 10009KT 2200 BR SCT030 BKN100 28/26 Q0999 NOSIG
TAF VIDP 232300Z 2400/2506 09006KT 2000 BR FEW030 SCT100 
     BECMG 2405/2407 12008KT 3500 BR HZ SCT030 BKN100 
     TEMPO 2406/2412 12010G20KT 1500 TSRA SCT030 FEW035CB OVC080 
     BECMG 2414/2416 09006KT 2500 BR 
     BECMG 2504/2505 12008KT 3000 BR HZ
       
VIGR 240130Z 15006KT 6000 FEW025 BKN250 26/17 Q998 NOSIG
VIJP 240230Z 11004KT 1200 R27/1200N DZ SCT020 SCT030 OVC090 Q0998 BECMG 1500 TSRA
TAF VIJP 232300Z 2400/2506 14005KT 4000 HZ BR SCT030 SCT090 
     BECMG 2404/2406 09005KT 4000 HZ 
     TEMPO 2405/2411 1500 TSRA FEW030CB OVC080 
     BECMG 2413/2415 VRB03KT 4000 HZ 
     TEMPO 2412/2418 1500 TSRA FEW030CB OVC080 
     BECMG 2504/2505 16006KT 4000 HZ SCT030 BKN090
       
VIJU 240130Z VRB01KT 2000 TSRABR SCT015 SCT020 FEW030CB BKN080 25/25 Q1001 NOSIG
VILK 240230Z 00000KT 2500 BR SCT010 SCT015 FEW030CB BKN100 28/28 Q0999 NOSIG
TAF VILK 232300Z 2400/2506 00000KT 3000 BR -RA SCT020 BKN090 
     TEMPO 2400/2404 1500 TSRA FEW030CB OVC090 
     BECMG 2404/2406 VRB02KT 3500 BR HZ 
     TEMPO 2408/2412 1500 TSRA FEW030CB VC090 
     BECMG 2414/2416 00000KT 2500 BR 
     BECMG 2504/2506 VRB03KT 4000 BR HZ
       
VISR 240130Z 12003KT 5000 BR SCT020 FEW030CB SCT200 20/18 Q1011 TEMPO TSRA( RMK CB S-25KM)
VEAT 240230Z 12010KT 3000 -RA FEW010 SCT018 OVC090 25/25 Q1001 NOSIG
VEBN 240230Z 27002KT 4000 BR FEW020 SCT100 30/26 Q0999 NOSIG
TAF VEBN 232300Z 2400/2506 00000KT 3000 BR -RA SCT020 BKN090 
     TEMPO 2400/2404 1500 TSRA FEW030CB OVC090 
     BECMG 2404/2406 VRB02KT 3500 BR HZ 
     TEMPO 2408/2412 1500 TSRA FEW030CB VC090 
     BECMG 2414/216 00000KT 2500 BR 
     BECMG 2504/2506 VRB03KT 4000 BR HZ
       
VEBS 240230Z 21004KT 3000 -RA SCT018 OVC090 27/27 Q1001 BECMG 2000 RA
VECC 240230Z 25012KT 1500 RA SCT008 SCT012 FEW025CB OVC080 26/26 Q0996 NOSIG
TAF VECC 232300Z 2400/2506 24010KT 2800 HZ SCT018 BKN090 
     BECMG 2404/2406 18007KT 3000 -RA HZ 
     TEMPO 2406/2410 1500 TSRA SCT015 FEW025CB BKN080 
     BECMG 2410/2412 2500 -RA HZ 
     TEMPO 2413/2417 1500 TSRA SCT015 FEW025CB OVC080 
     BECMG 2504/2506 23010KT 3000 HZ
       
VEGT 240200Z 07004KT 5000 BR SCT018 BKN100 29/26 Q1002 NOSIG
VEGY 240100Z 29007KT 2500 -RA FEW010 BKN016 OVC080 26/26 Q0997
VEIM 240200Z 00000KT 4000 -RA FEW008 SCT018 OVC090 23/22 Q1008 BECMG 5000 -RA
VEMN 240230Z 07003KT 3000 HZ SCT008 SCT018 FEW025CB BKN100 27/25 Q1005 BECMG 5000 HZ
VEPT 240230Z 08004KT 3000 HZ FEW010 SCT015 BKN100 28/26 Q0998 NOSIG
TAF VEPT 232300Z 2400/2506 05005KT 2500-RA HZ SCT018 BKN100 
     BECMG 2404/0406 3500 HZ SCT015 SCT025 BKN100 
     TEMPO 2410/2414 10008KT 2000-TSRA-RA SCT010 SCT015 FEW030CB OVC090 
     BECMG 2418/2420 2500 ..RA HZ SCT018 BKN100 
     BECMG 2500/2502 00000KT 3000 HZ 
     BECMG 2404/2406 VRB04KT 3500 HZ SCT015 SCT025 BKN100
       
VERC 240100Z 28006KT 2500 -RA SCT015 FEW030CB BKN100 23/23 Q1001 NOSIG
VEGT 240200Z 07004KT 5000 BR SCT018 BKN100 29/26 Q1002 NOSIG
VIGR 240130Z 15006KT 6000 FEW025 BKN250 26/17 Q998 NOSIG
VOBG 240230Z 26014KT 8000 SCT010 22/20 Q1012
TAF VOBG 240200Z 2403/2412 27010KT 8000 SCT012 SCT080 
     TEMPO 2409/2412 5000 RA DZ SCT010 SCT012 BKN080
       
VOBL 240230Z 27014KT 9999 SCT010 23/21 Q1013 NOSIG
TAF VOBL 240200Z 2403/2412 27010KT 8000 SCT012 SCT080 
     TEMPO 2409/2412 5000 RA DZ SCT010 SCT012 BKN080
       
TAF VOBM 240200Z 2403/2412 27010KT 8000 SCT010 SCT012 BKN080 
     TEMPO 2409/2412 5000 RA DZ SCT008 SCT012 BKN080
       
VOBZ 240230Z 29004KT 5000 HZ FEW020 SCT100 29/25 Q1004 NOSIG
VOCB 240230Z 18009KT 6000 FEW010 26/22 Q1011 NOSIG
TAF VOCB 232300Z 2400/2506 20010KT 6000 FEW015 SCT080 
     BECMG 2406/2407 20010G20KT 
     BECMG 2418/2419 20010KT
       
VOCI 240230Z 08004KT 3000 BR FEW012 SCT020 FEW025TCU 27/23 Q1010 NOSIG
TAF VOCI 232300Z 2400/2506 VRB05KT 3000 BR SCT015 BKN080 
     TEMPO 2400/2403 2000 RA BR SCT010 SCT015 BKN080 
     BECMG 2404/2406 28010KT 5000 HZ 
     TEMPO 2412/2416 2000 RA SCT010 FEW025CB BKN080 
     BECMG 2416/2418 VRB05KT 4000 RA BR 
     TEMPO 2423/2503 2000 RA BR SCT010 SCT015 BKN080 
     BECMG 2504/2506 27010KT 5000 HZ
       
VOCL 240230Z 00000KT 5000 BR SCT012 FEW025CB BKN090 26/24 Q1010 NOSIG
TAF VOCL 232300Z 2400/2506 VRB05KT 4000 BR FEW008 SCT012 BKN080 
     TEMPO 2400/2403 2000 RA BR SCT006 SCT012 BKN080 
     BECMG 2404/2406 29010KT 6000 FEW012 FEW025CB BKN080 
     BECMG 2416/2418 VRB05KT 4000 RA BR FEW006 SCT012 BKN080 
     TEMPO 2423/2503 2000 RA BR SCT006 SCT012 BKN080 
     BECMG 2504/2506 29010KT 6000 FEW012 FEW025CB BKN080
       
VOGO 240100Z 25012KT 5000 BR FEW010 SCT016 FEW022TCU BKN070 26/24 Q1006 TEMPO 3000 RA
TAF VOHB 240200Z 2403/2412 27010KT 8000 SCT010 SCT012 BKN080 
     TEMPO 2409/2412 5000 RA DZ SCT008 SCT012 BKN080
       
VOHS 240230Z 25006KT 5000 HZ SCT015 25/22 Q1009 NOSIG
TAF COR VOHS 232300Z 2400/2506 25007KT 5000 DZ HZ SCT015 BKN100 
     BECMG 2402/2404 27010KT 6000 FEW015 SCT025 BKN100 
     TEMPO 2411/2415 26015KT 3000 RA BKN010 FEW030CB OVC080 
     BECMG 2415/2417 25007KT 5000 DZ HZ SCT015 BKN10 
     BECMG 2503/2505 25007G17KT 6000 SCT015 SCT025
       
VOHY 240230Z 25004KT 5000 HZ SCT010 SCT015 BKN100 25/23 COR Q1010 NOSIG
VOMD 240230Z 33005KT 6000 FEW020 31/21 Q1008 NOSIG
TAF VOMD 232300Z 2400/2506 29010KT 6000 FEW020 SCT100
       
VOML 240230Z 18003KT 2000 BR FEW003 SCT012 26/24 Q1009 BECMG 3000 BR
TAF VOML 240200Z 2403/2412 27010KT 6000 SCT008 SCT012 BKN080 
     TEMPO 2409/2412 3000 SHRA RA SCT008 SCT012 FEW025CB BKN080
       
VOMM 240230Z 28010KT 6000 FEW020 32/22 Q1007 NOSIG
TAF VOMM 232300Z 2400/2506 25010KT 6000 FEW020 SCT100 
     BECMG 2409/2411 12010KT 
     BECMG 2418/2419 18005KT 
     BECMG 2500/2501 25010KT 
       
TAF VOMY 240200Z 2403/2412 27010KT 8000 SCT012 SCT080 
     TEMPO 2409/2412 5000 RA DZ SCT010 SCT012 BKN080
       
VORY 240230Z 00000KT 6000 FEW020 BKN200 34/25 Q1005
VOTP 240230Z 34004KT 6000 FEW020 31/22 Q1007
VOTR 240230Z 29008G18KT 6000 FEW018 30/21 Q1007 NOSIG
TAF VOTR 232300Z 2400/2506 27010G20KT 6000 FEW018 SCT100
       
VOTV 240230Z 34007KT 4000 HZ FEW015 28/24 Q1009 BECMG 5000
TAF VOTV 232300Z 2400/2506 34005KT 3000 HZ SCT015 BKN080 
     TEMPO 2400/2403 2000 RA 
     BECMG 2403/2405 30010G20KT 6000 
     TEMPO 2412/2416 2500 RA SCT010 FEW025CB BKN080 
     BECMG 2416/2417 34005KT 3000 HZ 
     TEMPO 2423/2503 2000 RA BR 
     BECMG 2503/2505 30010G20KT 6000
       
VOVZ 240200Z 27004KT 6000 FEW018 BKN220 30/26 Q1002 NOSIG
VIAG 240130Z 17003KT 4000 -RABR SCT006 SCT010 BKN080 26/26 Q0998 NOSIG
VIAR 240200Z 09007KT 5000 BR SCT040 BKN100 28/28 Q1000 NOSIG
TAF VIAR 232300Z 2400/2506 00000KT 3000 BR SCT030 BKN100 
     TEMPO 2402/2406 1500 TSRA SCT030 FEW035CB OVC080 
     BECMG 2405/2407 14006KT 5000 BR HZ 
     TEMPO 2415/2417 1500 TSRA SCT030 FEW035CB OVC080 
     BECMG 2418/2420 00000KT 3000 BR 
     BECMG 2504/2505 13006KT 4000 BR HZ 
     TEMPO 2502/2506 FEW035CB
       
VIBR 240230Z 00000KT 7000 FEW005 SCT030 BKN080 22/21 1006 NNN
VICG 240230Z 14007KT 6000 SCT025 BKN090 29/23 Q1000 NOSIG
VIDD 240230Z 09004KT 2000 BR SCT030 FEW035CB BKN100 28/26 Q0998 NOSIG
VIDN 240200Z 00000KT 6000 SCT030 SCT070 27/25 Q1001
VIDP 240230Z 10009KT 2200 BR SCT030 BKN100 28/26 Q0999 NOSIG
TAF VIDP 232300Z 2400/2506 09006KT 2000 BR FEW030 SCT100 
     BECMG 2405/2407 12008KT 3500 BR HZ SCT030 BKN100 
     TEMPO 2406/2412 12010G20KT 1500 TSRA SCT030 FEW035CB OVC080 
     BECMG 2414/2416 09006KT 2500 BR 
     BECMG 2504/2505 12008KT 3000 BR HZ
       
VIGR 240130Z 15006KT 6000 FEW025 BKN250 26/17 Q998 NOSIG
VIJP 240230Z 11004KT 1200 R27/1200N DZ SCT020 SCT030 OVC090 Q0998 BECMG 1500 TSRA
TAF VIJP 232300Z 2400/2506 14005KT 4000 HZ BR SCT030 SCT090 
     BECMG 2404/2406 09005KT 4000 HZ 
     TEMPO 2405/2411 1500 TSRA FEW030CB OVC080 
     BECMG 2413/2415 VRB03KT 4000 HZ 
     TEMPO 2412/2418 1500 TSRA FEW030CB OVC080 
     BECMG 2504/2505 16006KT 4000 HZ SCT030 BKN090
       
VIJU 240130Z VRB01KT 2000 TSRABR SCT015 SCT020 FEW030CB BKN080 25/25 Q1001 NOSIG
VILK 240230Z 00000KT 2500 BR SCT010 SCT015 FEW030CB BKN100 28/28 Q0999 NOSIG
TAF VILK 232300Z 2400/2506 00000KT 3000 BR -RA SCT020 BKN090 
     TEMPO 2400/2404 1500 TSRA FEW030CB OVC090 
     BECMG 2404/2406 VRB02KT 3500 BR HZ 
     TEMPO 2408/2412 1500 TSRA FEW030CB VC090 
     BECMG 2414/2416 00000KT 2500 BR 
     BECMG 2504/2506 VRB03KT 4000 BR HZ
       
VISR 240130Z 12003KT 5000 BR SCT020 FEW030CB SCT200 20/18 Q1011 TEMPO TSRA( RMK CB S-25KM)
VIAG 240130Z 17003KT 4000 -RABR SCT006 SCT010 BKN080 26/26 Q0998 NOSIG
VIAR 240200Z 09007KT 5000 BR SCT040 BKN100 28/28 Q1000 NOSIG
TAF VIAR 232300Z 2400/2506 00000KT 3000 BR SCT030 BKN100 
     TEMPO 2402/2406 1500 TSRA SCT030 FEW035CB OVC080 
     BECMG 2405/2407 14006KT 5000 BR HZ 
     TEMPO 2415/2417 1500 TSRA SCT030 FEW035CB OVC080 
     BECMG 2418/2420 00000KT 3000 BR 
     BECMG 2504/2505 13006KT 4000 BR HZ 
     TEMPO 2502/2506 FEW035CB
       
VIBR 240230Z 00000KT 7000 FEW005 SCT030 BKN080 22/21 1006 NNN
VICG 240230Z 14007KT 6000 SCT025 BKN090 29/23 Q1000 NOSIG
VIDD 240230Z 09004KT 2000 BR SCT030 FEW035CB BKN100 28/26 Q0998 NOSIG
VIDN 240200Z 00000KT 6000 SCT030 SCT070 27/25 Q1001
VIDP 240230Z 10009KT 2200 BR SCT030 BKN100 28/26 Q0999 NOSIG
TAF VIDP 232300Z 2400/2506 09006KT 2000 BR FEW030 SCT100 
     BECMG 2405/2407 12008KT 3500 BR HZ SCT030 BKN100 
     TEMPO 2406/2412 12010G20KT 1500 TSRA SCT030 FEW035CB OVC080 
     BECMG 2414/2416 09006KT 2500 BR 
     BECMG 2504/2505 12008KT 3000 BR HZ
       
VIGR 240130Z 15006KT 6000 FEW025 BKN250 26/17 Q998 NOSIG
VIJP 240230Z 11004KT 1200 R27/1200N DZ SCT020 SCT030 OVC090 Q0998 BECMG 1500 TSRA
TAF VIJP 232300Z 2400/2506 14005KT 4000 HZ BR SCT030 SCT090 
     BECMG 2404/2406 09005KT 4000 HZ 
     TEMPO 2405/2411 1500 TSRA FEW030CB OVC080 
     BECMG 2413/2415 VRB03KT 4000 HZ 
     TEMPO 2412/2418 1500 TSRA FEW030CB OVC080 
     BECMG 2504/2505 16006KT 4000 HZ SCT030 BKN090
       
VIJU 240130Z VRB01KT 2000 TSRABR SCT015 SCT020 FEW030CB BKN080 25/25 Q1001 NOSIG
VILK 240230Z 00000KT 2500 BR SCT010 SCT015 FEW030CB BKN100 28/28 Q0999 NOSIG
TAF VILK 232300Z 2400/2506 00000KT 3000 BR -RA SCT020 BKN090 
     TEMPO 2400/2404 1500 TSRA FEW030CB OVC090 
     BECMG 2404/2406 VRB02KT 3500 BR HZ 
     TEMPO 2408/2412 1500 TSRA FEW030CB VC090 
     BECMG 2414/2416 00000KT 2500 BR 
     BECMG 2504/2506 VRB03KT 4000 BR HZ
       
VISR 240130Z 12003KT 5000 BR SCT020 FEW030CB SCT200 20/18 Q1011 TEMPO TSRA( RMK CB S-25KM)
VEAT 240230Z 12010KT 3000 -RA FEW010 SCT018 OVC090 25/25 Q1001 NOSIG
VEBN 240230Z 27002KT 4000 BR FEW020 SCT100 30/26 Q0999 NOSIG
TAF VEBN 232300Z 2400/2506 00000KT 3000 BR -RA SCT020 BKN090 
     TEMPO 2400/2404 1500 TSRA FEW030CB OVC090 
     BECMG 2404/2406 VRB02KT 3500 BR HZ 
     TEMPO 2408/2412 1500 TSRA FEW030CB VC090 
     BECMG 2414/216 00000KT 2500 BR 
     BECMG 2504/2506 VRB03KT 4000 BR HZ
       
VEBS 240230Z 21004KT 3000 -RA SCT018 OVC090 27/27 Q1001 BECMG 2000 RA
VECC 240230Z 25012KT 1500 RA SCT008 SCT012 FEW025CB OVC080 26/26 Q0996 NOSIG
TAF VECC 232300Z 2400/2506 24010KT 2800 HZ SCT018 BKN090 
     BECMG 2404/2406 18007KT 3000 -RA HZ 
     TEMPO 2406/2410 1500 TSRA SCT015 FEW025CB BKN080 
     BECMG 2410/2412 2500 -RA HZ 
     TEMPO 2413/2417 1500 TSRA SCT015 FEW025CB OVC080 
     BECMG 2504/2506 23010KT 3000 HZ
       
VEGT 240200Z 07004KT 5000 BR SCT018 BKN100 29/26 Q1002 NOSIG
VEGY 240100Z 29007KT 2500 -RA FEW010 BKN016 OVC080 26/26 Q0997
VEIM 240200Z 00000KT 4000 -RA FEW008 SCT018 OVC090 23/22 Q1008 BECMG 5000 -RA
VEMN 240230Z 07003KT 3000 HZ SCT008 SCT018 FEW025CB BKN100 27/25 Q1005 BECMG 5000 HZ
VEPT 240230Z 08004KT 3000 HZ FEW010 SCT015 BKN100 28/26 Q0998 NOSIG
TAF VEPT 232300Z 2400/2506 05005KT 2500-RA HZ SCT018 BKN100 
     BECMG 2404/0406 3500 HZ SCT015 SCT025 BKN100 
     TEMPO 2410/2414 10008KT 2000-TSRA-RA SCT010 SCT015 FEW030CB OVC090 
     BECMG 2418/2420 2500 ..RA HZ SCT018 BKN100 
     BECMG 2500/2502 00000KT 3000 HZ 
     BECMG 2404/2406 VRB04KT 3500 HZ SCT015 SCT025 BKN100
       
VERC 240100Z 28006KT 2500 -RA SCT015 FEW030CB BKN100 23/23 Q1001 NOSIG
VOHY 240230Z 25004KT 5000 HZ SCT010 SCT015 BKN100 25/23 COR Q1010 NOSIG
VEIM 240200Z 00000KT 4000 -RA FEW008 SCT018 OVC090 23/22 Q1008 BECMG 5000 -RA
VIDP 240230Z 10009KT 2200 BR SCT030 BKN100 28/26 Q0999 NOSIG
TAF VIDP 232300Z 2400/2506 09006KT 2000 BR FEW030 SCT100 
     BECMG 2405/2407 12008KT 3500 BR HZ SCT030 BKN100 
     TEMPO 2406/2412 12010G20KT 1500 TSRA SCT030 FEW035CB OVC080 
     BECMG 2414/2416 09006KT 2500 BR 
     BECMG 2504/2505 12008KT 3000 BR HZ
       
VAJB 240100Z 00000KT 5000 HZ SCT010 SCT020 BKN080 24/23 Q1002
VIJP 240230Z 11004KT 1200 R27/1200N DZ SCT020 SCT030 OVC090 Q0998 BECMG 1500 TSRA
TAF VIJP 232300Z 2400/2506 14005KT 4000 HZ BR SCT030 SCT090 
     BECMG 2404/2406 09005KT 4000 HZ 
     TEMPO 2405/2411 1500 TSRA FEW030CB OVC080 
     BECMG 2413/2415 VRB03KT 4000 HZ 
     TEMPO 2412/2418 1500 TSRA FEW030CB OVC080 
     BECMG 2504/2505 16006KT 4000 HZ SCT030 BKN090
       
VIJU 240130Z VRB01KT 2000 TSRABR SCT015 SCT020 FEW030CB BKN080 25/25 Q1001 NOSIG
VIBR 240230Z 00000KT 7000 FEW005 SCT030 BKN080 22/21 1006 NNN
VILK 240230Z 00000KT 2500 BR SCT010 SCT015 FEW030CB BKN100 28/28 Q0999 NOSIG
TAF VILK 232300Z 2400/2506 00000KT 3000 BR -RA SCT020 BKN090 
     TEMPO 2400/2404 1500 TSRA FEW030CB OVC090 
     BECMG 2404/2406 VRB02KT 3500 BR HZ 
     TEMPO 2408/2412 1500 TSRA FEW030CB VC090 
     BECMG 2414/2416 00000KT 2500 BR 
     BECMG 2504/2506 VRB03KT 4000 BR HZ
       
VOMD 240230Z 33005KT 6000 FEW020 31/21 Q1008 NOSIG
TAF VOMD 232300Z 2400/2506 29010KT 6000 FEW020 SCT100
       
VOML 240230Z 18003KT 2000 BR FEW003 SCT012 26/24 Q1009 BECMG 3000 BR
TAF VOML 240200Z 2403/2412 27010KT 6000 SCT008 SCT012 BKN080 
     TEMPO 2409/2412 3000 SHRA RA SCT008 SCT012 FEW025CB BKN080
       
VANP 230230Z 23006KT 4000 HZ FEW0010 SCT015 BKN100 26/25 Q1004 NO SIG
TAF VANP 232300Z 2400/2506 23005KT 3000 -RA HZ FEW010 SCT020 BKN080 
     BECMG 2404/2406 23010KT 5000 -RA HZ 
     BECMG 2412/2414 23005KT 3000 -RA HZ 
     TEMPO 2408/2412 . 2414/2418 1500 RA 
     BECMG 2504/2506 23010KT 5000 -RA HZ
       
VECC 240230Z 25012KT 1500 RA SCT008 SCT012 FEW025CB OVC080 26/26 Q0996 NOSIG
TAF VECC 232300Z 2400/2506 24010KT 2800 HZ SCT018 BKN090 
     BECMG 2404/2406 18007KT 3000 -RA HZ 
     TEMPO 2406/2410 1500 TSRA SCT015 FEW025CB BKN080 
     BECMG 2410/2412 2500 -RA HZ 
     TEMPO 2413/2417 1500 TSRA SCT015 FEW025CB OVC080 
     BECMG 2504/2506 23010KT 3000 HZ
       
VEPT 240230Z 08004KT 3000 HZ FEW010 SCT015 BKN100 28/26 Q0998 NOSIG
TAF VEPT 232300Z 2400/2506 05005KT 2500-RA HZ SCT018 BKN100 
     BECMG 2404/0406 3500 HZ SCT015 SCT025 BKN100 
     TEMPO 2410/2414 10008KT 2000-TSRA-RA SCT010 SCT015 FEW030CB OVC090 
     BECMG 2418/2420 2500 ..RA HZ SCT018 BKN100 
     BECMG 2500/2502 00000KT 3000 HZ 
     BECMG 2404/2406 VRB04KT 3500 HZ SCT015 SCT025 BKN100
       
VORY 240230Z 00000KT 6000 FEW020 BKN200 34/25 Q1005
VARK 240100Z 25012KT 6000 SCT012 BKN080 26/24 Q1001
VIDD 240230Z 09004KT 2000 BR SCT030 FEW035CB BKN100 28/26 Q0998 NOSIG
VISR 240130Z 12003KT 5000 BR SCT020 FEW030CB SCT200 20/18 Q1011 TEMPO TSRA( RMK CB S-25KM)
VOTV 240230Z 34007KT 4000 HZ FEW015 28/24 Q1009 BECMG 5000
TAF VOTV 232300Z 2400/2506 34005KT 3000 HZ SCT015 BKN080 
     TEMPO 2400/2403 2000 RA 
     BECMG 2403/2405 30010G20KT 6000 
     TEMPO 2412/2416 2500 RA SCT010 FEW025CB BKN080 
     BECMG 2416/2417 34005KT 3000 HZ 
     TEMPO 2423/2503 2000 RA BR 
     BECMG 2503/2505 30010G20KT 6000
       
VOTR 240230Z 29008G18KT 6000 FEW018 30/21 Q1007 NOSIG
TAF VOTR 232300Z 2400/2506 27010G20KT 6000 FEW018 SCT100
       
VOTP 240230Z 34004KT 6000 FEW020 31/22 Q1007
VAUD 240230Z 20003KT 3000 FBLRA FEW015 SCT025 BKN080 24/23 Q998 NOSIG
VOBZ 240230Z 29004KT 5000 HZ FEW020 SCT100 29/25 Q1004 NOSIG